Location: Degersen
(52.2871°N, 9.5716°E)
Time: 20:16:10
(UTC+00:00)

Cosmos 1833 - Pass Details

Date: 20 January 2026
Orbit: 831 x 867 km, 70.9° (Epoch: 16 February)

Event Time Altitude Azimuth Distance (km) Brightness Sun altitude
Exits shadow 05:56:29 - 329° (NNW) 2,785 6.5 -12.3°
Reaches altitude 10° 05:57:11 10° 330° (NNW) 2,522 6.2 -12.2°
Maximum altitude 06:03:01 84° 57° (ENE) 878 4.3 -11.3°
Drops below altitude 10° 06:08:48 10° 148° (SSE) 2,499 7.5 -10.5°
Sets 06:11:14 0° 149° (SSE) 3,428 8.3 -10.1°
